Location: Unspecified
(51.0000°N, 12.0000°E)
Time: 23:35:07
(UTC+01:00)

ISS - Pass Details

Date: 01 December 2020
Orbit: 418 x 419 km, 51.6° (Epoch: 18 January)

Event Time Altitude Azimuth Distance (km) Brightness Sun altitude
Rises 17:17:06 0° 270° (W) 2,368 1.5 -10.3°
Reaches altitude 10° 17:19:13 10° 272° (W) 1,504 0.2 -10.6°
Maximum altitude 17:22:35 78° 359° (N) 435 -3.8 -11.1°
Enters shadow 17:25:00 18° 85° (E) 1,118 -2.2 -11.4°
